Temperature
14 14 14 14 13 13 13 13 13 13 13 13 13 13 12 12 12 12 12 12 12 12 12 12 12 12 12 12 12 11 12 12 12 12 11 11 11 11 11 11 11 11 11
14 14 14 14 13 13 13 13 13 13 13 13 12 12 12 12 12 12 12 12 12 12 12 12 12 12 12 12 11 11 11 11 11 11 11 11 11 11 11 11 11 11 11
14 14 13 13 13 13 13 13 13 13 12 12 12 12 12 12 12 12 12 12 11 11 11 11 12 12 11 11 11 11 11 11 11 11 11 11 10 10 10 10 10 10 10
13 13 13 13 13 13 13 12 12 12 12 12 12 12 12 12 12 12 12 11 11 11 11 11 11 11 11 11 11 11 11 11 11 11 11 10 10 10 10 10 10 10 10
13 13 13 13 13 13 12 12 12 12 12 12 12 12 12 12 11 11 11 11 11 11 11 11 11 11 11 11 11 11 11 11 10 10 10 10 10 10 10 10 9 9 9
13 13 13 12 12 12 12 12 12 12 12 11 11 11 11 11 11 11 11 11 11 11 11 11 11 11 11 11 11 11 11 10 10 10 10 10 10 9 9 9 9 9 9
13 13 12 12 12 12 11 11 11 11 11 11 11 11 11 11 11 11 11 10 10 10 10 10 10 10 10 10 10 10 10 10 10 10 10 10 9 9 9 9 9 9 9
12 12 12 12 11 11 11 11 11 11 11 11 10 10 10 10 11 11 10 10 10 10 10 10 10 10 10 10 10 10 10 10 9 9 9 9 9 9 9 9 9 8 8
12 12 11 11 11 11 11 11 11 11 10 10 10 10 10 10 10 10 10 9 9 9 9 9 9 9 10 10 9 9 9 9 9 9 9 9 9 9 9 8 8 8 8
12 11 11 11 11 11 11 10 10 10 10 10 10 9 9 9 10 10 9 9 9 9 9 9 9 9 9 9 9 9 9 9 9 9 9 9 9 9 9 8 8 8 8
11 11 11 10 10 10 10 10 10 10 9 9 9 9 9 9 9 9 9 9 9 9 8 8 9 9 9 9 9 8 8 8 8 8 8 8 8 8 8 8 8 7 7
11 11 10 10 10 10 10 9 9 9 9 9 9 8 8 8 8 8 8 8 8 8 8 8 8 8 8 8 8 8 8 8 8 8 7 7 7 7 7 7 7 7 7
10 10 10 10 9 9 9 9 9 9 9 8 8 8 8 8 8 8 8 8 8 8 8 8 8 8 8 8 8 8 8 7 7 7 7 7 7 7 7 7 7 7 7
10 10 10 9 9 9 9 9 9 8 8 8 8 8 8 7 7 8 8 8 8 8 7 7 7 7 7 7 7 7 7 7 7 7 7 6 6 7 7 7 6 6 6
9 9 9 9 9 8 8 8 8 8 8 8 8 8 7 7 7 7 7 7 7 7 7 7 7 7 7 7 6 6 6 6 6 6 6 6 6 6 6 6 6 6 6
9 9 8 8 8 8 8 8 8 8 8 8 8 7 7 7 7 7 7 7 7 7 7 6 6 6 6 6 6 6 6 6 6 6 6 6 5 5 5 5 6 6 5
9 8 8 8 8 8 7 7 7 7 7 7 7 7 7 7 7 7 7 7 7 6 6 6 6 6 6 5 5 5 5 5 5 5 5 5 5 5 5 5 5 5 5
8 8 8 8 7 7 7 7 7 7 7 7 7 7 7 7 7 6 6 6 6 6 6 5 5 5 5 5 5 5 5 5 5 5 5 5 4 4 5 5 5 5 4
7 7 7 7 7 7 6 6 6 6 6 6 6 6 6 6 6 6 6 6 5 5 5 5 5 5 5 5 5 4 4 4 4 4 4 4 4 4 4 4 4 4 4
7 7 7 7 6 6 6 6 6 6 6 5 6 6 6 5 5 5 5 5 5 5 5 5 4 4 4 4 4 4 4 4 4 4 4 4 4 4 4 4 4 4 4
6 6 6 6 6 6 6 6 5 5 5 5 5 5 5 5 5 5 5 5 4 4 4 4 4 4 4 4 4 3 3 4 4 4 4 4 3 3 3 3 3 3 3
6 6 6 6 6 5 5 5 5 5 5 5 5 5 5 4 4 4 4 4 4 4 4 4 4 4 4 3 3 3 3 3 3 3 3 3 3 3 3 3 3 3 3
6 5 5 5 5 5 5 5 5 4 4 4 4 4 4 4 4 4 4 4 4 4 4 4 3 3 3 3 3 3 3 3 3 3 3 2 2 2 2 2 2 2 2
5 5 5 5 5 5 4 4 4 4 4 4 4 4 4 4 4 3 3 3 3 3 3 3 3 3 3 3 3 3 3 3 3 3 2 2 2 2 2 2 2 2 2
5 5 4 4 4 4 4 4 4 4 4 3 3 4 4 3 3 3 3 3 3 3 3 3 3 3 3 3 3 3 3 3 3 2 2 2 2 2 2 1 1 1 1
4 4 4 4 4 4 4 4 3 3 3 3 3 3 3 3 3 3 3 3 3 3 2 2 2 2 2 2 2 3 3 2 2 2 2 2 1 1 1 1 1 1 1
Wind_Speed
5 5 4 4 4 4 4 4 4 4 4 5 5 4 4 3 3 3 3 3 4 3 3 3 3 3 2 2 3 3 3 3 3 2 1 1 1 1 1 1 0 0 1
5 5 5 4 4 4 4 4 4 4 4 4 4 4 4 4 4 4 4 4 4 4 3 3 3 2 3 3 3 4 4 4 4 3 2 1 2 1 1 1 1 1 0
5 5 5 5 5 4 4 4 4 4 4 4 4 4 4 4 4 4 5 5 5 4 4 4 4 3 4 3 3 4 3 3 3 4 2 1 2 2 1 1 1 1 1
6 6 5 5 5 5 4 4 4 4 3 4 4 4 4 4 5 5 5 5 5 4 4 4 4 4 4 4 3 4 3 3 3 3 2 2 2 2 2 2 1 1 1
6 6 5 5 5 4 4 4 3 3 3 3 4 4 4 4 4 4 4 5 5 4 4 3 3 2 3 2 3 3 3 3 3 3 3 2 2 2 3 2 2 2 1
6 5 4 4 4 5 5 4 4 3 3 3 3 3 3 2 1 1 4 4 4 4 4 3 3 3 2 1 1 2 2 3 4 4 3 4 3 3 3 3 3 3 2
6 5 5 4 4 5 5 5 4 4 4 4 4 4 4 3 3 2 3 4 4 3 4 4 3 3 3 4 3 3 2 2 3 4 5 4 4 3 3 4 4 4 3
6 6 5 5 5 5 5 5 5 5 5 4 4 4 3 2 3 3 3 4 4 3 3 4 4 4 3 4 4 3 3 3 3 4 4 4 3 3 4 4 4 3 2
6 6 6 6 5 5 5 5 5 5 5 4 4 4 4 4 3 3 4 4 4 4 4 4 4 4 1 3 4 4 4 2 1 1 2 2 2 1 2 3 3 4 3
6 6 6 6 6 6 5 5 4 4 4 4 4 4 5 4 4 4 5 4 4 4 3 3 3 3 2 3 5 4 4 3 2 2 3 3 3 3 5 5 4 4 4
5 5 5 6 6 6 5 4 4 4 4 4 4 4 4 4 4 5 5 4 4 4 4 3 2 3 2 3 4 4 3 3 3 3 3 3 3 3 4 4 4 4 4
4 5 5 5 5 5 5 4 4 4 4 4 4 4 3 3 3 4 5 5 4 4 4 3 2 3 2 3 3 2 1 2 3 3 3 3 3 3 3 3 4 4 4
4 5 5 5 5 5 5 4 4 4 4 4 4 3 3 3 2 3 5 5 4 4 3 1 1 3 3 3 2 3 3 3 4 4 4 3 3 3 3 2 3 3 3
5 5 5 5 5 5 4 4 4 4 4 4 4 4 3 3 3 3 3 3 4 4 3 2 3 3 3 2 2 3 4 3 3 3 3 3 2 2 2 3 3 3 3
5 5 5 5 5 4 4 3 4 4 4 4 4 4 4 4 3 2 3 3 4 4 3 3 3 3 3 3 3 3 3 3 3 3 3 3 3 3 3 3 3 3 4
5 5 4 4 4 4 3 2 2 3 3 4 4 4 4 3 2 3 4 4 3 4 4 4 4 4 4 4 4 4 4 4 4 4 3 4 4 4 3 3 3 4 4
5 5 4 4 4 5 4 4 3 2 3 5 5 5 5 4 3 4 4 4 4 5 4 4 4 4 4 4 4 4 4 4 4 4 4 4 4 4 4 4 4 4 4
5 4 5 4 5 5 5 5 4 4 3 3 3 5 5 5 5 5 5 4 4 5 4 4 4 4 4 4 4 4 4 4 4 4 4 4 4 4 4 4 4 5 5
4 4 4 4 4 5 5 5 4 5 4 3 3 3 5 5 5 5 5 4 4 4 4 4 5 4 4 4 4 4 4 4 4 4 5 5 5 5 5 5 5 5 5
4 4 4 4 4 5 5 5 5 5 5 4 4 3 3 3 3 4 4 4 5 5 5 5 4 5 4 4 4 4 4 4 5 5 5 5 5 5 5 6 5 5 5
4 4 5 5 4 5 5 5 5 5 5 4 4 4 4 4 4 4 4 4 4 5 5 5 4 4 5 4 4 5 6 5 5 5 5 5 5 5 5 5 5 5 5
4 4 4 4 4 4 4 4 5 5 5 5 4 4 6 5 4 4 4 4 4 4 4 4 5 4 5 5 5 5 6 6 6 5 5 5 5 5 6 6 6 6 6
4 4 4 4 4 4 4 4 4 5 5 5 5 5 5 5 5 5 5 4 4 5 5 5 5 5 5 5 6 6 6 6 6 6 6 6 6 6 6 6 7 7 7
4 4 4 4 4 4 5 5 5 5 5 5 5 5 5 5 5 5 5 4 4 5 5 5 5 6 6 6 6 6 6 6 6 6 7 7 7 6 6 7 7 8 8
4 4 4 5 5 5 5 5 5 5 5 5 5 4 4 4 4 4 4 4 5 5 5 5 5 6 7 7 7 6 6 6 7 7 7 7 7 8 7 8 7 7 8
4 4 5 5 5 5 5 5 5 5 5 5 5 4 4 4 4 4 4 4 4 4 5 5 6 6 7 7 7 7 7 7 8 8 8 7 7 7 7 7 8 8 8
Wind_Direction
201 202 202 207 212 216 220 226 225 223 225 222 219 221 222 223 221 214 236 243 247 243 235 251 260 263 249 243 249 248 254 260 258 249 210 200 212 240 203 256 230 242 97
197 198 199 200 204 209 214 217 221 224 225 227 221 226 230 233 233 226 227 238 245 247 246 248 257 251 250 257 254 251 248 249 249 246 225 225 244 248 232 244 266 302 330
193 199 199 201 205 209 214 215 218 222 225 223 225 226 229 235 237 239 236 239 244 248 249 250 255 255 251 251 251 255 250 241 242 241 235 232 250 240 228 239 254 266 262
194 199 204 208 208 213 217 222 220 220 221 226 228 228 234 237 235 239 243 246 245 246 249 252 258 257 260 260 249 248 246 235 225 230 232 226 232 236 233 231 239 254 280
200 203 207 209 207 212 215 220 219 219 225 225 230 230 232 237 239 239 245 246 245 242 242 246 260 290 314 294 266 248 234 233 226 222 225 232 228 218 235 234 238 236 263
202 204 200 205 204 210 215 215 216 217 225 225 226 225 224 223 173 248 260 242 238 238 237 239 240 233 225 209 313 327 290 248 244 237 233 234 243 240 234 232 235 239 242
200 200 199 204 209 213 213 212 214 217 221 225 226 223 225 207 156 194 258 256 244 242 243 244 242 248 238 224 203 203 230 282 284 258 250 248 248 238 225 228 233 239 246
202 203 203 207 212 214 214 216 220 220 217 219 222 223 229 217 163 189 226 239 245 249 252 251 245 245 239 242 227 222 231 237 244 249 254 260 260 241 225 231 236 239 257
208 210 209 209 211 213 215 219 221 222 220 218 221 222 224 221 181 204 233 235 239 242 245 250 247 245 218 249 243 232 229 230 180 231 279 296 336 284 226 218 217 223 242
212 213 211 209 209 211 214 216 217 216 221 221 223 227 231 235 187 205 234 232 238 241 244 238 234 248 211 229 236 235 235 242 235 231 232 234 246 209 203 223 225 232 244
211 209 209 208 207 205 206 208 211 215 216 221 225 228 235 242 206 201 225 231 231 234 235 234 216 173 182 204 243 244 251 264 244 241 242 237 234 220 211 223 232 238 242
206 205 205 203 200 199 199 204 207 209 211 215 223 226 231 235 237 206 210 233 258 239 239 240 214 150 181 209 230 244 251 248 238 238 238 232 229 226 223 224 228 233 250
206 206 204 201 201 201 198 199 205 208 212 216 221 226 228 232 223 204 209 221 245 246 244 243 152 160 186 210 221 226 222 235 233 235 237 236 235 232 227 229 227 217 239
210 210 208 204 203 204 205 206 208 210 216 220 223 228 232 229 230 222 220 217 216 231 235 191 176 183 206 231 220 224 234 237 237 242 243 241 238 231 229 231 235 219 227
221 215 210 208 207 210 215 215 219 224 223 227 231 232 233 236 239 239 232 231 225 222 224 223 221 217 224 228 229 229 232 231 231 235 231 234 235 238 242 235 236 233 237
226 219 213 207 206 211 212 216 192 218 216 223 237 241 248 253 235 212 221 225 224 209 213 223 223 226 230 232 232 232 232 231 232 234 232 233 234 239 241 239 234 233 237
226 220 213 213 207 210 214 214 220 212 204 212 218 223 233 231 216 208 208 207 206 198 214 229 232 233 234 234 236 238 241 239 234 230 231 233 237 240 241 240 239 239 240
227 222 217 214 214 216 221 221 220 222 232 237 212 206 213 214 213 212 204 195 206 207 223 230 235 237 237 234 233 236 240 238 235 232 231 234 235 237 240 242 241 242 242
229 225 221 218 215 216 219 223 224 226 231 235 235 211 202 210 211 210 202 214 222 225 230 236 239 242 244 243 239 236 235 237 239 234 234 236 235 235 239 242 243 238 240
232 219 224 224 219 216 216 219 222 225 228 230 231 227 210 212 220 216 216 224 227 231 236 240 242 245 246 246 243 240 238 237 241 239 238 238 238 238 241 243 245 242 240
233 219 212 224 226 224 220 219 221 225 228 232 235 228 220 228 230 228 227 229 234 237 239 241 243 242 242 243 243 242 243 244 243 240 239 241 242 241 243 244 244 244 245
228 224 223 227 229 229 229 229 226 226 228 234 238 222 207 227 237 234 232 234 237 240 244 246 243 239 238 240 240 241 243 245 246 242 239 239 240 242 243 242 243 243 244
227 226 226 226 230 224 227 231 230 228 230 232 232 229 225 229 235 239 239 238 238 241 240 241 244 243 241 240 238 238 243 245 246 245 243 242 240 240 242 242 242 243 243
229 227 226 226 226 228 229 232 233 233 236 237 235 234 230 228 234 241 243 240 240 242 241 240 242 246 249 248 245 244 247 254 255 245 244 246 244 244 244 245 247 244 244
230 228 229 230 227 227 229 233 236 237 238 238 236 237 239 236 237 244 246 242 241 243 244 244 244 245 248 251 253 253 255 257 255 256 251 245 244 243 244 245 244 245 245
232 231 233 232 231 230 229 233 234 236 239 239 235 234 236 239 242 246 250 248 246 246 248 246 249 252 258 258 260 262 259 253 251 251 251 245 243 243 244 244 245 244 247
Height
1525 1525 1526 1526 1527 1528 1528 1529 1529 1530 1530 1531 1531 1532 1532 1532 1533 1532 1532 1532 1532 1532 1532 1532 1531 1531 1531 1531 1531 1531 1531 1532 1532 1531 1531 1530 1530 1529 1529 1528 1528 1527 1527
1522 1523 1524 1524 1525 1525 1526 1526 1527 1527 1528 1528 1529 1529 1530 1530 1530 1530 1530 1530 1530 1530 1530 1530 1529 1529 1529 1529 1529 1529 1529 1529 1530 1529 1529 1528 1528 1528 1527 1527 1527 1526 1525
1519 1520 1521 1522 1522 1523 1523 1524 1524 1525 1525 1526 1526 1527 1527 1527 1528 1528 1528 1528 1528 1528 1527 1527 1527 1527 1527 1527 1527 1527 1527 1527 1527 1527 1527 1526 1526 1526 1525 1525 1525 1524 1524
1516 1517 1518 1519 1519 1520 1521 1521 1522 1522 1522 1523 1523 1523 1524 1524 1525 1525 1525 1525 1525 1525 1525 1524 1524 1524 1524 1524 1524 1524 1524 1524 1524 1524 1524 1523 1523 1523 1523 1523 1523 1522 1522
1513 1514 1515 1515 1516 1517 1518 1518 1519 1519 1519 1520 1520 1520 1521 1521 1521 1521 1522 1522 1522 1522 1522 1521 1521 1521 1521 1521 1521 1521 1521 1521 1521 1521 1521 1521 1521 1520 1521 1521 1521 1520 1520
1509 1510 1511 1512 1513 1514 1514 1515 1515 1516 1516 1517 1517 1517 1517 1517 1517 1518 1518 1518 1518 1518 1518 1518 1518 1517 1517 1517 1517 1517 1517 1518 1518 1518 1518 1518 1518 1518 1518 1518 1518 1518 1518
1506 1507 1508 1509 1510 1510 1511 1512 1512 1513 1513 1513 1513 1513 1514 1513 1514 1514 1514 1515 1515 1515 1515 1515 1514 1514 1514 1514 1514 1514 1514 1514 1514 1515 1515 1515 1515 1515 1515 1515 1515 1515 1515
1502 1503 1504 1505 1506 1507 1508 1508 1509 1509 1509 1509 1509 1510 1510 1510 1510 1510 1511 1511 1511 1511 1511 1511 1511 1511 1511 1511 1511 1511 1511 1511 1511 1511 1511 1512 1512 1512 1512 1512 1512 1512 1512
1498 1499 1500 1502 1502 1503 1504 1504 1505 1505 1505 1506 1506 1506 1506 1506 1507 1507 1507 1507 1507 1507 1507 1507 1507 1508 1507 1507 1508 1508 1507 1507 1507 1507 1507 1508 1508 1508 1508 1509 1509 1509 1509
1495 1495 1497 1498 1498 1499 1500 1501 1501 1502 1502 1502 1502 1503 1503 1503 1503 1503 1504 1504 1504 1504 1503 1503 1503 1504 1504 1504 1504 1504 1504 1504 1504 1504 1504 1504 1504 1504 1505 1505 1506 1506 1506
1491 1492 1493 1494 1494 1495 1496 1497 1497 1498 1498 1499 1499 1499 1499 1499 1499 1499 1500 1500 1500 1500 1500 1500 1500 1500 1500 1500 1500 1500 1500 1501 1501 1501 1501 1501 1501 1501 1501 1501 1502 1502 1503
1488 1489 1490 1490 1491 1492 1492 1493 1494 1494 1494 1495 1495 1495 1495 1496 1496 1495 1496 1496 1496 1497 1497 1496 1496 1496 1496 1497 1497 1497 1497 1497 1497 1497 1498 1497 1497 1497 1497 1497 1498 1498 1498
1485 1485 1486 1487 1487 1488 1489 1489 1490 1490 1491 1491 1491 1492 1492 1492 1492 1492 1492 1492 1493 1493 1493 1493 1493 1493 1493 1493 1493 1493 1493 1493 1493 1494 1494 1493 1493 1493 1493 1493 1493 1494 1494
1481 1482 1482 1483 1484 1484 1485 1485 1486 1486 1487 1487 1488 1488 1488 1488 1489 1488 1488 1489 1489 1489 1489 1489 1489 1489 1489 1489 1489 1489 1489 1489 1489 1489 1489 1490 1490 1489 1489 1489 1489 1489 1490
1477 1478 1478 1479 1480 1480 1481 1481 1482 1482 1483 1483 1484 1484 1485 1485 1485 1485 1485 1485 1485 1485 1485 1485 1485 1485 1485 1485 1485 1485 1485 1485 1485 1485 1485 1485 1485 1485 1485 1485 1485 1485 1485
1473 1474 1474 1475 1475 1476 1477 1477 1478 1479 1479 1479 1480 1480 1480 1481 1481 1481 1481 1481 1481 1481 1481 1481 1480 1480 1480 1480 1480 1480 1480 1480 1480 1481 1481 1481 1481 1481 1481 1481 1481 1481 1481
1469 1470 1470 1471 1471 1472 1473 1473 1473 1474 1475 1475 1475 1476 1476 1476 1477 1477 1477 1477 1477 1477 1477 1477 1476 1476 1476 1476 1476 1476 1476 1476 1476 1476 1476 1477 1477 1477 1477 1477 1477 1477 1477
1465 1465 1466 1467 1467 1468 1469 1469 1469 1470 1470 1470 1471 1471 1471 1472 1472 1472 1473 1473 1472 1472 1472 1472 1472 1472 1472 1472 1472 1471 1472 1472 1472 1472 1472 1473 1473 1473 1473 1473 1473 1473 1473
1462 1462 1462 1463 1463 1464 1464 1465 1465 1466 1466 1466 1466 1466 1467 1467 1467 1468 1468 1468 1468 1468 1468 1468 1468 1468 1468 1468 1468 1467 1467 1467 1467 1468 1468 1468 1468 1468 1468 1468 1468 1468 1468
1458 1458 1458 1458 1459 1460 1460 1461 1461 1462 1462 1462 1462 1462 1462 1462 1462 1463 1463 1463 1463 1463 1463 1463 1463 1463 1463 1463 1463 1463 1463 1463 1463 1463 1463 1463 1464 1464 1463 1464 1464 1464 1464
1455 1455 1455 1455 1455 1456 1456 1456 1457 1457 1457 1458 1458 1458 1457 1458 1458 1458 1458 1458 1458 1458 1459 1459 1459 1459 1459 1458 1458 1458 1458 1458 1458 1458 1458 1458 1459 1459 1459 1459 1459 1459 1459
1451 1451 1451 1452 1452 1452 1452 1452 1452 1452 1453 1453 1453 1453 1453 1454 1454 1453 1453 1453 1453 1453 1454 1454 1454 1453 1453 1453 1453 1453 1453 1453 1454 1453 1453 1453 1454 1454 1454 1454 1454 1454 1454
1447 1447 1447 1448 1448 1448 1448 1448 1448 1448 1448 1448 1449 1449 1449 1449 1449 1449 1449 1449 1449 1449 1449 1449 1448 1448 1448 1448 1448 1448 1448 1448 1448 1448 1448 1448 1448 1448 1449 1449 1449 1449 1449
1444 1443 1444 1444 1444 1444 1444 1444 1444 1444 1444 1444 1444 1444 1444 1444 1444 1444 1444 1444 1444 1444 1444 1444 1443 1443 1443 1443 1443 1443 1443 1443 1443 1443 1443 1443 1443 1443 1443 1443 1443 1443 1443
1439 1439 1440 1440 1440 1440 1440 1439 1439 1439 1439 1439 1439 1439 1439 1439 1439 1439 1439 1439 1439 1439 1439 1439 1438 1438 1438 1438 1437 1437 1438 1438 1438 1438 1437 1437 1437 1437 1437 1437 1437 1437 1437
1435 1435 1435 1435 1435 1435 1435 1435 1435 1434 1434 1434 1434 1434 1434 1434 1434 1434 1434 1434 1434 1434 1434 1434 1434 1433 1433 1433 1432 1432 1432 1432 1432 1432 1432 1432 1432 1432 1432 1432 1432 1432 1432